Skip Page Navigation
NASA JPL Caltech
NASA Logo - Jet Propulsion Laboratory + View the NASA Portal
+ Center for Near-Earth Object Studies
JPL Home Earth Solar System Stars & Galaxies Technology
JPL Solar System Dynamics
BODIES ORBITS EPHEMERIDES TOOLS PHYSICAL DATA DISCOVERY FAQ SITE MAP
JPL Small-Body Database Browser
Search: [ help ]  
160005 (2007 GA51)
Classification: Outer Main-belt Asteroid          SPK-ID: 2160005
Ephemeris | Orbit Diagram | Orbital Elements | Mission Design | Physical Parameters | Discovery Circumstances | Close-Approach Data ]

[ show orbit diagram ]
Orbital Elements at Epoch 2459000.5 (2020-May-31.0) TDB
Reference: JPL 20 (heliocentric ecliptic J2000)
 Element Value Uncertainty (1-sigma)   Units 
e .1607593401969474 5.5427e-08  
a 3.939356208178928 7.6591e-08 au
q 3.306067903351335 2.0156e-07 au
i 13.53966343520288 6.8319e-06 deg
node 65.5544798233209 2.4362e-05 deg
peri 205.991693261953 3.1845e-05 deg
M 200.4499742801601 2.0934e-05 deg
tp 2460266.199719328302
(2023-Nov-17.69971933)
0.00017925 TDB
period 2855.856004425129
7.82
8.3287e-05
2.28e-07
d
yr
n .1260567757765736 3.6763e-09 deg/d
Q 4.572644513006521 8.8903e-08 au
  Orbit Determination Parameters
   # obs. used (total)      419  
   data-arc span      7228 days (19.79 yr)  
   first obs. used      1999-03-20  
   last obs. used      2019-01-02  
   planetary ephem.      DE431  
   SB-pert. ephem.      SB431-N16  
   condition code      0  
   norm. resid. RMS      .5846  
   source      ORB  
   producer      Otto Matic  
   solution date      2019-Jul-14 09:08:30  

Additional Information
 Earth MOID = 2.29683 au 
 Jupiter MOID = .563808 au 
 T_jup = 2.991 
[ show covariance matrix ]

Ephemeris | Orbit Diagram | Orbital Elements | Mission Design | Physical Parameters | Discovery Circumstances | Close-Approach Data ]

Physical Parameter Table
Parameter Symbol Value Units Sigma Reference Notes
absolute magnitude H 13.6   n/a MPO254159  

160005 (2007 GA51)          Discovered 2007-Apr-15 by CSS at Catalina
Reference: 20070630/Numbers.arcLast Updated: 2007-07-05

[ hide close-approach data ]
Close-Approach Data   ...sorted by Date/Time (TDB)
Date/Time (TDB) Time Uncertainty
(days_HH:MM)
Body Nominal Distance (au) Minimum Distance (au) Maximum Distance (au) V-relative (km/s) V-infinity (km/s) JD (TDB) Time Uncertainty (minutes) Semi-major axis (km) Semi-minor axis (km) range-LOV angle (deg) N-sigma BP Orbit Ref. Reference Modified
1912-Jul-23 02:07 00:03 Jupiter 1.82949418503319 1.8294931019231 1.82949526814547 5.18442343240103 5.09433830060747 2419606.588285529 2.9187926329003 170.945403166884 40.3772471660549 -79.0654324258699 2515545.46792805 T 20 CATAB v2.0e-lin.ifort 2019-Jul-14 09:08:32 2019-Jul-14 09:08
1936-Dec-01 10:38 00:04 Jupiter 1.86308382112503 1.86308279622081 1.86308484603348 5.09244433250623 5.00237142970923 2428503.943349153 3.8303896858106 232.286295110895 37.83577104355 -83.111681164397 2546330.45326745 T 20 CATAB v2.0e-lin.ifort 2019-Jul-14 09:08:32 2019-Jul-14 09:08
1961-Feb-27 11:31 00:04 Jupiter 1.86728882851698 1.86728769038543 1.86728996665235 4.75582313029382 4.65946691161809 2437357.979600258 4.14946010758105 229.167966658973 41.7288893264481 -83.128993788027 2214200.29058088 T 20 CATAB v2.0e-lin.ifort 2019-Jul-14 09:08:32 2019-Jul-14 09:08
1985-Jan-20 09:26 00:03 Jupiter 1.89217356002056 1.89217252879456 1.89217459124742 4.66632341632886 4.56938548557111 2446085.892722831 3.00582794778881 160.183196170862 42.7048394629668 -83.9955076129363 2120741.53940998 T 20 CATAB v2.0e-lin.ifort 2019-Jul-14 09:08:32 2019-Jul-14 09:08
2008-Jun-30 17:20 < 00:01 Jupiter 1.9380167128521 1.93801595527157 1.93801747043275 5.0534452358816 4.96620539716612 2454648.222045332 0.796181118319329 73.2445672926262 33.8700724074646 79.75464053011 2668466.76585967 T 20 CATAB v2.0e-lin.ifort 2019-Jul-14 09:08:32 2019-Jul-14 09:08
2031-Aug-11 15:49 00:02 Jupiter 1.9918352378773 1.99183456713676 1.99183590861795 5.59245415938255 5.51589058685058 2463090.159030780 1.5067775416457 101.828843091641 31.3438193761999 86.0196123776356 3152080.85145166 T 20 CATAB v2.0e-lin.ifort 2019-Jul-14 09:08:32 2019-Jul-14 09:08
2100-Aug-09 16:41 00:05 Jupiter 1.95246309386379 1.95246176111378 1.95246442661425 4.87433974689385 4.78451072425992 2488290.195449177 4.56186842347299 157.520407765919 52.8062702689728 80.2482705610466 1026039.63752192 T 20 CATAB v2.0e-lin.ifort 2019-Jul-14 09:08:32 2019-Jul-14 09:08
2123-Dec-19 22:28 00:04 Jupiter 1.8993855144262 1.8993840382045 1.89938699064757 4.3944529654751 4.2917741981571 2496822.435806517 3.65156539629596 157.96201817238 62.3607203031537 86.7249765193417 906882.723386443 T 20 CATAB v2.0e-lin.ifort 2019-Jul-14 09:08:32 2019-Jul-14 09:08
2147-Oct-10 15:40 00:02 Jupiter 1.86977076541309 1.86976945872737 1.86977207209891 4.42147120900235 4.31779922571125 2505518.152591178 1.75483531321419 165.986450896056 57.3163359733727 84.0231386320373 1406520.73549162 T 20 CATAB v2.0e-lin.ifort 2019-Jul-14 09:08:32 2019-Jul-14 09:08
2171-Dec-14 01:05 00:02 Jupiter 1.84881811187806 1.84881675341651 1.84881947033981 4.76541868217854 4.66828981777097 2514348.544954726 2.23757435198404 154.628552559657 62.8210759567053 82.3546509399292 1976346.86330456 T 20 CATAB v2.0e-lin.ifort 2019-Jul-14 09:08:32 2019-Jul-14 09:08
2196-Apr-14 23:36 00:04 Jupiter 1.81943806722014 1.81943645986843 1.81943967457227 5.02710920567582 4.93363410854479 2523237.483091636 3.64145185571461 166.023298625935 73.2820760941936 -79.9530063227013 1869169.27632654 T 20 CATAB v2.0e-lin.ifort 2019-Jul-14 09:08:32 2019-Jul-14 09:08

Alternate Designations
 2007 GA51 = 2003 YM92 
Ephemeris | Orbit Diagram | Orbital Elements | Mission Design | Physical Parameters | Discovery Circumstances | Close-Approach Data ]
ABOUT SSD CREDITS/AWARDS PRIVACY/COPYRIGHT GLOSSARY LINKS
FirstGov 2020-Aug-04 09:18 UT
(server date/time)  
NASA Home Page
Site Manager:   Ryan S. Park
Webmaster  Alan B. Chamberlin